Wind_Speed
80 80 79 80 79 75 73 72 74 76 76 76 74 74 74 74 76 76 76 75 77 77 78 76 77 77 78 77 79 83 81 76 74 74 71 71 72 65 61 63 59 57 56 60 60 56 62 61 65 65 64 53 42 39
76 74 77 76 77 78 78 79 76 78 74 75 73 72 76 76 76 78 75 72 77 79 85 82 80 80 80 81 79 80 79 78 78 78 74 75 73 62 61 63 62 58 56 59 59 56 61 62 62 62 63 59 45 39
76 74 73 73 75 76 75 76 72 72 72 71 75 75 77 75 78 77 76 77 78 81 81 81 82 80 79 79 78 79 82 81 79 76 76 69 65 60 59 63 63 58 58 56 58 59 60 60 62 60 63 59 49 40
75 71 70 74 72 75 74 77 71 73 73 73 72 73 75 78 79 80 80 79 79 78 79 79 79 80 82 83 83 85 85 81 76 75 69 67 63 58 61 62 64 53 59 56 57 55 59 59 59 59 63 60 52 40
76 75 75 73 72 76 74 69 67 68 72 73 75 75 78 78 78 80 81 82 81 81 80 81 82 82 84 87 86 82 78 75 67 65 58 57 60 53 56 63 63 53 57 54 56 54 55 57 56 56 60 60 54 44
65 69 70 66 65 68 63 62 66 70 74 75 76 79 81 80 80 77 78 79 82 79 80 86 83 82 79 75 76 75 70 69 66 56 53 53 55 52 53 63 56 56 57 53 53 53 52 53 53 55 59 60 58 47
69 64 66 64 64 64 65 63 67 67 72 75 77 76 79 81 82 80 77 68 62 62 61 60 62 66 70 71 71 69 64 63 58 54 52 51 53 52 54 63 53 55 54 51 50 49 50 50 52 54 59 61 57 49
62 63 63 66 69 69 68 71 74 78 81 79 80 77 67 64 59 56 54 55 55 55 52 51 55 62 65 67 67 64 59 55 54 51 52 50 53 56 55 57 59 52 50 47 48 47 47 49 52 55 58 64 59 51
66 69 71 69 72 71 70 68 63 62 56 56 57 56 56 55 53 52 51 50 48 47 46 50 54 54 57 57 55 54 51 48 49 52 51 46 54 60 54 53 54 50 48 47 47 47 47 49 54 57 60 63 61 52
66 67 64 66 64 61 58 58 56 54 54 52 52 54 54 54 54 54 51 51 50 50 51 55 52 52 50 49 48 49 48 47 41 47 47 48 55 58 49 48 48 47 47 46 46 49 51 54 56 60 62 66 66 54
75 71 71 70 68 68 64 61 58 55 54 54 54 54 55 56 57 56 56 56 55 57 58 59 58 55 52 51 48 45 44 42 40 48 48 43 57 54 50 48 50 48 49 50 50 54 56 62 61 63 65 68 67 57
80 79 79 79 77 74 71 69 67 65 65 65 67 64 62 62 60 59 58 60 63 63 62 62 63 62 60 58 54 52 49 46 47 44 43 47 53 51 50 49 53 54 54 55 57 59 63 66 68 67 69 68 66 57
84 86 86 83 82 82 80 78 77 76 74 72 69 72 70 69 68 65 67 66 67 66 66 67 67 67 65 65 63 62 60 59 58 57 57 57 55 57 57 57 60 61 57 60 62 66 71 72 73 73 71 67 62 54
88 89 87 86 87 87 86 85 85 83 82 81 78 77 78 77 77 76 74 72 72 71 72 73 73 71 70 69 69 69 70 69 69 69 69 67 66 67 66 67 68 70 69 68 70 73 78 79 78 76 70 64 59 52
90 89 91 94 93 93 92 90 90 91 90 89 87 86 84 88 88 86 83 82 78 78 79 78 77 77 78 77 75 77 79 78 78 77 77 78 77 77 76 76 77 78 78 78 78 78 80 80 79 73 65 60 55 49
99 98 98 98 98 98 99 99 99 98 99 98 96 97 97 95 95 94 93 90 88 87 87 88 87 86 86 87 86 86 87 87 85 84 85 86 86 87 83 85 85 85 84 83 81 78 76 74 71 65 61 55 49 47
104 103 106 107 106 107 106 105 105 107 107 106 107 107 105 101 99 98 97 101 100 96 96 96 93 93 94 94 96 98 98 96 92 91 91 95 97 101 96 89 89 88 84 79 75 68 67 62 60 60 55 50 46 46
104 108 108 106 110 112 113 112 111 111 113 113 111 111 108 108 107 106 107 106 106 105 105 105 101 98 100 100 102 102 101 100 97 95 92 93 96 97 96 90 83 74 69 70 66 62 59 58 55 53 48 46 46 44
112 112 112 112 111 110 111 115 115 111 112 114 112 112 109 111 109 107 103 104 105 107 105 104 100 101 101 102 103 101 103 101 98 96 96 92 89 89 88 84 76 69 64 59 56 56 56 54 52 51 47 45 45 43
111 112 112 111 111 110 111 113 116 111 105 106 107 107 102 102 105 108 112 107 105 101 97 94 91 91 94 95 93 86 84 85 86 83 78 77 79 78 75 72 68 65 61 57 53 53 56 53 52 50 47 44 43 42
102 103 104 104 102 100 102 103 97 96 93 93 93 86 85 84 86 90 94 94 86 83 81 82 79 77 77 77 77 75 77 80 78 74 73 72 72 69 65 64 61 57 52 51 50 51 51 52 47 44 42 41 41 39
93 93 91 91 91 90 91 89 91 91 86 87 84 81 78 78 79 82 79 74 73 73 75 73 74 72 70 70 72 72 73 73 70 67 66 61 61 62 58 55 52 50 49 48 46 46 45 46 42 40 39 37 38 36
84 83 82 81 80 80 83 81 81 80 78 78 74 71 72 72 73 73 67 70 71 70 67 67 67 66 66 67 65 65 65 63 61 61 60 56 54 52 52 52 49 45 44 43 43 43 43 41 38 38 37 36 36 34
77 75 75 74 76 80 83 82 76 74 73 71 68 67 68 67 66 63 62 65 66 66 65 61 61 61 61 60 60 61 59 55 54 54 50 48 49 48 45 46 45 44 41 40 40 40 40 38 36 36 35 35 33 31
63 60 59 64 70 74 75 72 68 64 60 58 57 57 58 57 54 55 57 60 64 62 59 58 57 54 53 54 54 53 50 48 49 49 48 45 47 46 43 43 42 40 37 37 37 37 36 35 34 33 32 31 30 28
52 50 54 65 73 67 61 58 58 53 52 55 55 54 52 49 50 54 60 58 56 56 54 51 51 50 51 51 51 50 48 43 40 42 42 40 40 40 40 39 38 35 34 34 35 33 32 32 31 30 29 28 27 25
49 57 62 68 67 53 48 47 46 47 52 55 52 46 44 46 52 56 56 53 52 50 49 47 45 44 46 44 41 42 41 38 37 39 38 38 37 37 36 35 35 33 31 32 31 30 30 29 28 26 26 26 25 23
52 57 57 55 44 43 38 41 49 54 50 45 39 45 50 48 49 50 50 50 46 43 38 35 34 35 37 37 38 37 35 36 34 34 36 36 34 32 31 32 31 29 28 28 28 28 27 26 26 25 25 24 23 22
48 52 45 40 38 40 44 50 49 46 42 42 43 46 44 43 44 42 37 33 33 31 28 30 34 35 35 34 34 34 33 33 33 33 32 31 29 27 27 28 28 27 26 25 25 26 25 24 23 23 23 22 21 21
43 38 33 39 43 44 50 41 36 41 42 38 35 36 40 40 31 28 31 28 28 28 30 34 34 33 31 28 29 30 30 31 31 29 27 25 24 25 27 26 26 26 24 23 22 22 22 22 22 22 21 21 20 20
37 38 40 41 40 42 36 30 33 34 33 31 29 31 34 29 26 24 25 27 30 33 32 30 27 23 22 23 26 26 28 28 26 25 24 24 24 23 24 24 23 24 23 22 22 22 22 21 21 21 21 20 20 20
34 32 32 34 34 27 25 27 29 31 29 27 26 24 30 26 21 18 31 34 29 24 25 27 26 23 24 24 24 22 21 22 25 25 24 24 23 21 21 22 22 21 21 21 21 20 20 20 20 20 20 20 20 20
29 29 27 27 27 24 23 29 29 25 23 27 27 27 28 24 23 29 29 22 22 24 24 22 20 21 23 21 20 20 21 21 22 22 23 22 21 21 21 21 20 19 20 20 19 19 19 19 20 20 20 19 19 19
Wind_Direction
245 244 247 251 253 256 258 260 260 263 266 269 273 275 273 271 276 274 277 277 280 281 282 281 284 285 287 289 293 295 296 298 303 304 304 307 311 311 311 309 310 310 315 309 313 320 324 333 335 337 337 336 321 308
245 246 248 250 251 254 256 257 260 265 265 267 268 267 269 272 272 274 272 278 279 278 282 283 284 286 287 288 291 293 294 296 298 302 302 304 307 307 310 308 307 309 313 311 311 317 322 329 332 335 337 336 327 312
242 243 248 250 250 255 255 257 263 263 263 264 265 271 272 269 271 275 274 276 280 281 282 284 284 284 286 288 290 292 293 296 298 296 299 301 302 306 308 306 304 308 310 310 311 315 319 325 329 331 334 335 329 319
243 247 250 252 255 259 256 261 264 263 267 267 266 265 268 271 272 274 275 276 278 279 282 282 283 285 287 287 287 290 292 295 295 295 295 296 297 304 305 306 301 311 308 309 309 313 317 323 327 329 333 333 329 320
250 253 251 253 254 257 259 260 259 261 262 263 264 266 269 269 269 272 275 276 278 279 282 283 284 285 286 288 287 289 290 291 293 295 292 293 296 302 305 303 300 314 306 310 310 313 316 320 324 326 330 332 330 322
244 253 251 251 251 259 256 257 259 261 264 264 263 267 267 269 272 275 275 275 277 278 279 283 283 284 286 286 286 288 289 291 293 293 291 291 294 300 303 298 308 309 308 310 311 312 315 318 321 324 328 332 331 323
245 247 252 252 249 248 250 254 256 258 261 261 262 264 269 273 273 274 277 281 283 283 283 284 287 287 284 284 285 285 286 289 291 292 291 291 294 301 301 298 307 305 307 311 308 311 313 317 318 322 326 330 329 324
238 239 239 242 246 251 255 257 260 264 267 266 267 271 271 273 276 278 281 281 283 286 289 287 284 284 286 286 285 284 285 286 287 293 289 292 298 297 298 304 302 305 307 307 307 309 313 316 315 319 326 328 328 324
247 248 247 252 256 257 258 257 257 260 261 262 264 265 269 273 277 281 281 284 288 289 290 287 284 288 291 295 295 289 286 286 286 288 289 294 293 294 300 299 300 306 306 308 309 310 312 312 314 319 323 326 326 322
248 247 251 254 260 262 260 262 264 265 260 262 267 269 273 276 276 277 279 281 283 285 285 284 286 292 298 299 298 298 297 294 294 290 292 293 296 294 300 301 304 304 307 307 310 310 312 311 314 317 322 326 324 320
250 251 253 256 258 261 262 264 267 267 267 267 270 271 273 275 277 278 279 281 282 280 280 283 288 290 292 295 298 299 298 297 297 290 296 300 290 296 306 307 304 306 306 307 310 311 312 311 313 317 321 322 321 316
248 251 253 257 260 262 262 265 266 270 272 273 275 275 276 277 276 277 280 281 278 278 280 282 285 289 292 294 295 295 296 297 292 295 292 285 288 296 298 299 299 301 303 307 308 308 310 311 312 315 316 318 316 312
248 250 253 257 259 260 263 265 267 269 272 273 274 277 276 278 278 281 280 277 278 278 279 281 284 286 287 289 291 293 294 293 295 294 291 293 295 294 297 298 299 300 303 304 306 308 309 309 310 311 312 313 311 307
249 250 252 254 256 259 262 265 268 270 271 275 274 275 276 276 276 276 276 278 278 278 280 283 284 284 286 287 289 291 292 292 292 292 294 295 296 297 298 299 299 300 301 302 304 304 305 306 307 306 308 308 306 301
251 252 254 254 256 259 260 263 267 269 271 272 273 275 276 274 273 273 276 277 277 279 279 280 281 283 285 287 289 290 290 289 289 291 293 294 296 295 295 295 295 296 298 299 299 299 300 301 303 303 303 303 300 296
251 252 253 255 257 259 260 261 263 265 268 270 271 271 271 273 274 274 275 276 278 278 278 280 281 283 285 286 288 288 288 288 289 290 291 292 293 293 294 294 293 292 293 293 294 296 297 299 300 299 299 298 293 290
253 254 255 256 257 259 260 261 263 264 266 267 268 270 271 271 272 274 275 277 278 279 279 280 281 282 284 286 288 288 287 288 289 291 293 294 294 295 293 291 291 291 292 294 295 296 296 296 295 294 294 291 288 288
255 255 255 257 258 259 260 262 263 264 266 266 267 269 271 271 272 274 275 276 277 278 279 281 282 283 284 285 284 284 285 286 287 290 291 291 290 289 289 290 291 292 293 295 294 293 294 294 293 292 288 287 288 287
256 257 258 260 260 261 262 261 264 268 267 266 269 272 273 273 274 275 277 277 277 278 278 280 282 282 283 282 282 284 285 286 287 287 286 285 285 285 287 289 292 290 290 290 289 289 290 289 290 287 284 284 284 282
257 259 261 260 260 262 264 265 266 267 268 270 271 272 273 274 274 274 274 276 279 278 280 280 282 280 279 277 278 280 280 282 281 280 281 282 284 285 287 287 287 287 288 287 288 286 285 286 284 283 283 281 278 275
257 258 259 261 262 265 267 266 268 269 269 270 271 274 274 274 274 275 274 274 277 278 278 276 275 276 277 278 278 278 277 274 275 279 281 282 282 284 286 286 287 286 285 283 282 280 278 279 280 279 278 276 273 272
258 259 260 262 264 265 267 268 268 269 270 268 270 271 272 273 274 274 273 276 279 276 272 272 274 275 276 276 274 274 275 277 280 281 280 280 283 286 285 282 282 283 283 280 278 275 275 276 277 275 274 271 269 269
258 259 260 262 263 266 266 267 266 266 267 269 269 271 271 271 270 271 276 275 272 272 272 272 272 273 273 274 275 277 276 278 279 279 280 281 282 279 279 281 281 280 278 277 275 274 273 274 273 272 271 268 266 268
258 260 262 265 265 264 263 264 265 266 268 268 269 270 270 269 270 273 272 270 269 268 268 270 273 275 276 278 276 275 275 277 278 279 279 279 279 277 277 278 278 277 277 276 273 271 271 271 270 268 267 265 264 264
259 262 266 267 265 263 262 264 266 266 270 270 268 267 267 269 269 269 269 266 265 269 272 273 275 275 275 275 274 276 279 279 277 277 277 277 277 278 277 275 275 275 273 271 269 267 267 267 267 266 266 267 266 266
263 263 264 262 260 260 262 266 269 272 271 269 266 264 265 266 268 268 265 264 266 267 269 269 269 271 272 274 276 276 276 276 276 274 274 273 272 270 270 272 271 269 268 265 263 263 264 264 263 262 262 263 262 259
260 256 256 260 261 267 271 270 270 267 263 261 263 268 268 263 259 258 263 268 268 267 269 272 274 275 275 276 275 273 273 272 269 269 269 268 268 268 269 268 266 264 262 261 262 262 262 263 263 260 257 256 256 254
251 254 256 260 268 268 267 265 261 258 259 263 267 262 256 256 261 262 264 267 271 274 276 277 274 273 272 270 268 267 266 265 263 262 263 266 266 265 265 264 263 263 260 258 258 260 260 259 259 257 255 253 252 248
251 254 260 264 263 263 259 255 257 261 263 261 259 262 265 263 263 267 271 272 270 268 264 258 256 257 260 262 262 262 260 259 259 259 260 262 263 261 258 258 258 258 258 257 258 260 261 260 258 255 252 250 246 243
256 260 260 257 253 252 253 257 261 261 262 262 261 264 264 265 267 266 265 262 257 254 251 252 257 258 261 262 262 262 261 260 260 259 261 261 256 253 253 253 253 255 255 254 255 256 257 257 255 253 250 246 241 238
249 246 246 251 254 255 259 261 256 262 263 261 254 254 261 265 263 257 254 249 246 249 256 262 271 269 264 259 257 260 264 266 266 262 256 252 252 252 254 257 256 256 255 253 252 251 252 253 251 248 245 240 235 232
249 250 252 253 256 260 257 258 258 254 254 255 255 250 254 255 251 234 242 244 250 263 266 263 260 257 256 257 257 257 261 264 261 258 256 253 251 250 250 250 250 252 253 252 251 249 249 248 245 241 237 233 231 229
243 245 247 251 252 248 240 244 250 253 250 249 248 245 248 250 244 243 253 261 258 254 253 256 257 253 250 251 253 253 251 252 256 257 255 250 246 244 245 246 246 247 249 249 247 246 245 243 238 235 232 228 226 226
Height
10386 10395 10400 10406 10412 10417 10421 10424 10427 10430 10431 10432 10433 10434 10435 10436 10435 10436 10435 10433 10431 10427 10427 10423 10424 10419 10418 10415 10409 10404 10400 10396 10394 10388 10384 10379 10370 10364 10356 10345 10341 10335 10331 10319 10315 10312 10302 10297 10285 10276 10264 10255 10245 10237
10370 10377 10383 10390 10395 10400 10403 10406 10408 10411 10413 10415 10416 10416 10417 10417 10416 10417 10419 10418 10415 10411 10409 10407 10405 10405 10401 10398 10394 10388 10384 10383 10379 10373 10370 10364 10357 10352 10345 10336 10324 10323 10320 10309 10303 10300 10290 10284 10278 10268 10257 10245 10238 10230
10354 10360 10367 10373 10377 10382 10385 10388 10391 10394 10396 10397 10398 10398 10397 10398 10397 10398 10400 10400 10398 10395 10392 10391 10388 10385 10384 10379 10377 10372 10366 10366 10363 10358 10355 10350 10344 10340 10334 10324 10315 10313 10307 10300 10293 10286 10282 10277 10266 10258 10248 10238 10229 10222
10337 10344 10349 10355 10360 10364 10368 10371 10373 10375 10376 10377 10378 10379 10380 10380 10380 10380 10381 10381 10379 10377 10376 10372 10368 10365 10362 10358 10358 10355 10350 10347 10343 10341 10341 10334 10329 10330 10320 10311 10299 10307 10293 10290 10282 10279 10270 10265 10259 10248 10239 10228 10220 10213
10319 10326 10331 10337 10342 10346 10350 10353 10356 10357 10357 10359 10360 10362 10362 10362 10362 10362 10362 10360 10360 10359 10360 10353 10350 10346 10340 10337 10335 10335 10333 10330 10328 10326 10323 10316 10312 10315 10310 10293 10284 10294 10281 10279 10271 10267 10262 10254 10248 10241 10231 10221 10212 10205
10301 10309 10314 10321 10325 10329 10332 10336 10338 10339 10340 10341 10343 10343 10343 10344 10344 10344 10343 10341 10341 10342 10342 10337 10330 10325 10321 10316 10314 10312 10313 10313 10312 10313 10309 10303 10296 10300 10299 10279 10281 10276 10268 10266 10261 10254 10250 10245 10237 10231 10221 10212 10202 10195
10288 10294 10299 10305 10308 10313 10316 10319 10321 10321 10322 10323 10324 10327 10327 10325 10325 10324 10325 10324 10321 10322 10323 10323 10312 10301 10297 10295 10295 10295 10297 10296 10296 10296 10293 10289 10283 10285 10280 10263 10270 10264 10258 10254 10248 10245 10239 10233 10225 10220 10211 10202 10195 10187
10271 10277 10281 10288 10292 10296 10299 10301 10303 10305 10305 10306 10308 10309 10309 10309 10308 10308 10310 10307 10306 10307 10306 10304 10295 10285 10282 10277 10277 10277 10280 10283 10283 10281 10276 10275 10270 10265 10265 10259 10250 10251 10247 10243 10237 10233 10228 10222 10215 10209 10202 10192 10184 10177
10255 10260 10266 10270 10274 10277 10281 10284 10286 10287 10287 10289 10291 10292 10291 10292 10293 10294 10294 10294 10295 10292 10290 10284 10276 10276 10269 10267 10265 10264 10267 10268 10271 10267 10263 10265 10255 10246 10253 10249 10240 10237 10233 10229 10224 10219 10217 10211 10203 10197 10191 10182 10173 10166
10238 10244 10249 10253 10257 10260 10263 10266 10268 10270 10273 10274 10275 10276 10276 10277 10277 10279 10281 10282 10281 10278 10273 10265 10264 10261 10262 10259 10256 10254 10253 10251 10257 10253 10251 10250 10240 10232 10237 10233 10229 10224 10221 10217 10213 10207 10204 10198 10192 10185 10178 10169 10160 10155
10221 10227 10232 10235 10239 10242 10246 10249 10252 10254 10257 10259 10260 10261 10263 10262 10262 10264 10265 10265 10264 10260 10256 10251 10250 10251 10248 10246 10246 10245 10243 10243 10244 10237 10235 10239 10221 10219 10219 10217 10211 10211 10207 10203 10200 10195 10190 10181 10179 10172 10166 10158 10149 10142
10204 10209 10213 10216 10221 10225 10229 10233 10235 10237 10239 10242 10244 10245 10247 10247 10247 10247 10249 10247 10241 10241 10242 10239 10235 10234 10233 10233 10233 10232 10231 10230 10227 10228 10228 10223 10213 10215 10212 10210 10202 10198 10193 10189 10186 10182 10176 10168 10162 10159 10153 10147 10137 10129
10186 10191 10196 10199 10203 10207 10211 10214 10215 10219 10221 10223 10225 10226 10228 10229 10228 10231 10225 10224 10223 10224 10224 10224 10222 10221 10219 10216 10216 10216 10215 10213 10211 10209 10204 10203 10204 10199 10196 10193 10188 10182 10181 10176 10171 10164 10157 10152 10147 10143 10139 10132 10124 10116
10167 10171 10176 10181 10184 10187 10191 10193 10196 10199 10201 10203 10206 10208 10207 10209 10207 10204 10203 10204 10204 10205 10203 10204 10203 10204 10203 10202 10201 10199 10196 10193 10190 10187 10185 10186 10183 10180 10178 10174 10170 10165 10162 10160 10156 10149 10141 10135 10130 10124 10121 10115 10107 10101
10145 10150 10154 10158 10163 10167 10170 10172 10175 10178 10181 10182 10185 10186 10189 10181 10179 10179 10182 10182 10183 10185 10183 10182 10182 10181 10178 10179 10183 10179 10174 10173 10169 10169 10165 10163 10162 10159 10157 10155 10150 10145 10141 10138 10135 10132 10125 10116 10109 10104 10100 10097 10090 10084
10122 10127 10131 10135 10141 10145 10147 10149 10152 10157 10158 10161 10163 10159 10158 10160 10156 10156 10157 10159 10160 10160 10158 10157 10158 10158 10158 10156 10155 10153 10148 10145 10147 10147 10144 10140 10137 10129 10133 10128 10127 10121 10118 10114 10110 10106 10103 10097 10089 10082 10079 10077 10072 10068
10100 10102 10106 10111 10116 10119 10122 10125 10128 10130 10135 10137 10133 10129 10132 10135 10137 10134 10133 10131 10131 10130 10130 10131 10137 10136 10136 10133 10128 10121 10114 10114 10116 10116 10116 10111 10106 10096 10089 10089 10094 10091 10087 10084 10082 10080 10076 10073 10069 10062 10059 10056 10054 10052
10073 10074 10080 10085 10090 10093 10094 10096 10099 10102 10105 10104 10104 10102 10103 10107 10109 10107 10105 10105 10105 10101 10099 10102 10108 10111 10109 10105 10099 10091 10088 10087 10090 10092 10092 10086 10077 10069 10063 10063 10062 10061 10061 10061 10058 10054 10051 10048 10045 10042 10042 10039 10037 10037
10046 10050 10054 10057 10061 10065 10066 10068 10068 10073 10075 10075 10076 10075 10076 10077 10077 10078 10078 10075 10072 10070 10072 10075 10079 10084 10078 10067 10064 10067 10061 10058 10060 10060 10058 10054 10052 10046 10043 10040 10039 10038 10037 10038 10038 10034 10032 10030 10027 10024 10024 10022 10020 10020
10021 10023 10026 10029 10033 10035 10037 10037 10039 10044 10046 10048 10048 10044 10046 10048 10049 10048 10046 10044 10043 10041 10046 10049 10050 10045 10041 10036 10032 10038 10040 10034 10030 10030 10030 10028 10025 10021 10021 10020 10019 10017 10017 10016 10017 10016 10012 10010 10007 10006 10006 10006 10005 10003
9994 9997 10000 10002 10005 10009 10010 10008 10009 10013 10018 10020 10015 10017 10017 10019 10020 10016 10015 10013 10018 10023 10020 10015 10012 10013 10013 10015 10013 10009 10007 10002 10004 10008 10011 10009 10002 10000 10001 9999 9998 9997 9998 9997 9996 9996 9994 9989 9989 9990 9990 9990 9989 9989
9970 9972 9976 9980 9983 9987 9984 9983 9985 9985 9990 9989 9990 9991 9997 9997 9993 9986 9990 9997 9999 9992 9986 9988 9987 9989 9989 9989 9986 9984 9984 9981 9983 9985 9985 9988 9987 9980 9980 9981 9981 9980 9978 9978 9978 9977 9976 9973 9974 9975 9975 9975 9975 9975
9946 9951 9957 9961 9966 9967 9956 9957 9957 9959 9963 9964 9968 9972 9973 9971 9967 9964 9976 9971 9967 9965 9965 9966 9966 9965 9965 9963 9965 9963 9961 9965 9967 9964 9963 9966 9967 9963 9962 9961 9961 9961 9961 9962 9962 9961 9960 9960 9960 9961 9961 9961 9962 9963
9928 9935 9938 9943 9942 9936 9931 9928 9934 9938 9942 9946 9949 9948 9945 9945 9947 9950 9951 9944 9942 9941 9942 9946 9947 9946 9946 9946 9944 9941 9943 9949 9948 9946 9946 9947 9945 9944 9946 9944 9944 9944 9946 9946 9946 9946 9946 9947 9947 9947 9948 9950 9950 9951
9912 9918 9923 9919 9909 9904 9904 9909 9915 9919 9924 9925 9926 9924 9923 9924 9928 9928 9924 9921 9917 9922 9927 9927 9928 9930 9927 9924 9925 9926 9929 9932 9931 9930 9930 9932 9929 9929 9930 9930 9930 9930 9931 9932 9931 9932 9933 9933 9934 9935 9936 9938 9939 9941
9899 9905 9901 9886 9873 9883 9893 9897 9897 9902 9905 9901 9902 9902 9904 9909 9909 9905 9897 9900 9904 9905 9907 9908 9908 9910 9910 9911 9911 9911 9913 9915 9916 9913 9913 9915 9915 9915 9915 9916 9916 9918 9919 9918 9918 9918 9919 9921 9922 9924 9926 9927 9928 9931
9879 9873 9868 9861 9862 9876 9882 9882 9883 9883 9879 9877 9881 9887 9891 9890 9884 9880 9882 9888 9889 9891 9893 9894 9896 9897 9896 9897 9898 9896 9897 9899 9900 9899 9899 9899 9901 9902 9903 9904 9903 9905 9907 9907 9907 9908 9909 9911 9913 9914 9916 9917 9919 9921
9849 9847 9849 9851 9863 9862 9867 9865 9860 9857 9861 9867 9873 9869 9865 9869 9870 9871 9872 9873 9877 9880 9882 9883 9883 9882 9882 9882 9882 9883 9883 9884 9885 9886 9887 9887 9889 9891 9893 9892 9893 9894 9896 9897 9898 9899 9900 9902 9903 9905 9907 9908 9910 9912
9834 9832 9840 9847 9847 9848 9844 9840 9843 9849 9853 9854 9854 9852 9854 9857 9857 9859 9863 9865 9865 9866 9867 9868 9867 9866 9866 9868 9869 9871 9872 9873 9874 9874 9875 9877 9880 9881 9881 9882 9882 9884 9886 9887 9889 9890 9892 9894 9895 9897 9899 9900 9902 9904
9821 9827 9833 9830 9828 9828 9824 9832 9839 9836 9837 9841 9844 9842 9840 9842 9848 9850 9850 9852 9853 9853 9853 9852 9853 9854 9855 9857 9859 9860 9862 9863 9863 9865 9867 9868 9870 9871 9871 9872 9874 9875 9876 9878 9880 9882 9884 9885 9887 9889 9891 9893 9895 9897
9810 9812 9813 9813 9815 9815 9822 9827 9825 9825 9827 9829 9831 9831 9831 9834 9836 9839 9841 9841 9840 9838 9839 9842 9845 9847 9848 9849 9849 9850 9852 9854 9857 9858 9859 9859 9860 9862 9863 9865 9866 9867 9869 9870 9872 9874 9876 9878 9880 9881 9883 9886 9888 9890
9801 9804 9806 9805 9806 9810 9813 9813 9814 9814 9817 9819 9820 9822 9821 9824 9828 9832 9825 9824 9829 9833 9836 9836 9837 9838 9839 9840 9841 9842 9844 9846 9848 9849 9851 9852 9853 9854 9856 9857 9858 9860 9862 9863 9865 9867 9869 9871 9873 9875 9877 9880 9882 9885
9792 9793 9795 9797 9798 9801 9804 9802 9803 9805 9808 9809 9811 9813 9815 9817 9820 9817 9818 9824 9826 9825 9826 9827 9829 9829 9829 9831 9834 9836 9836 9838 9840 9842 9844 9846 9846 9847 9849 9850 9852 9853 9855 9857 9859 9861 9863 9865 9867 9869 9872 9874 9877 9879